Regional Weather Roundup
Issued by NWS Newport/Morehead, NC

Current Version | Previous Version | Graphics & Text | Print | Product List | Glossary Off
Versions: 1 2 3 4 5 6 7 8 9 10 11 12 13 14 15 16 17 18 19 20 21 22 23 24 25 26 27 28 29 30 31 32 33 34 35 36 37 38 39 40 41 42 43 44 45 46 47 48 49 50

000
ASUS42 KMHX 190310
RWRMHX
WEATHER ROUNDUP FOR EASTERN NORTH CAROLINA
NATIONAL WEATHER SERVICE NEWPORT/MOREHEAD CITY NC
1100 PM EDT THU SEP 18 2014

NOTE: "FAIR" INDICATES FEW OR NO CLOUDS BELOW 12,000 FEET
WITH NO SIGNIFICANT WEATHER AND/OR OBSTRUCTIONS TO VISIBILITY

NCZ015>017-031-032-045>047-102-103-190400-
NORTH COAST

CITY           SKY/WX    TMP DP  RH WIND       PRES   REMARKS
EDENTON        PTCLDY    62  59  91 CALM      30.07S
ELIZABETH CITY PTCLDY    66  58  75 E3        30.08R
KITTY HAWK     CLEAR     70  56  60 E6        30.05F
MANTEO         CLEAR     69  57  64 E8        30.06F

$$

NCZ045>047-081-094-103-104-190400-
CENTRAL COAST

CITY           SKY/WX    TMP DP  RH WIND       PRES   REMARKS
FRISCO         PTCLDY    66  57  72 NE5       30.05S
SWANQUARTER      N/A     66 N/A N/A NE3       30.03S

$$

NCZ095-097-098-100-101-190400-
SOUTHERN COAST

CITY           SKY/WX    TMP DP  RH WIND       PRES   REMARKS
BEAUFORT       CLEAR     68  61  78 N6        30.04R
CEDAR ISLAND     N/A     73 N/A N/A NE9G21    30.09S
JACKSONVILLE   CLEAR     70  60  70 E6        30.04S
NEWPORT        NOT AVBL
PINEY ISLAND   CLEAR     74  59  59 E13       30.05R
WILMINGTON     CLEAR     72  61  68 E7        30.03R


$$

NCZ011>013-027>030-043-044-078>080-089-090>093-098-190400-
COASTAL PLAIN

CITY           SKY/WX    TMP DP  RH WIND       PRES   REMARKS
AHOSKIE        PTCLDY    62  58  87 CALM      30.08R
CLINTON        CLEAR     68  63  84 CALM      30.05R
ELIZABETHTOWN  CLEAR     68  64  88 CALM      30.04R
GOLDSBORO      CLEAR     66  65  98 CALM      30.05R
GREENVILLE     MOCLDY    64  59  82 E3        30.08S
HAVELOCK       CLEAR     66  60  81 CALM      30.06R
KENANSVILLE    CLEAR     64  59  82 CALM      30.06S
KINSTON        PTCLDY    67  60  77 SE3       30.07S
NEW BERN       CLEAR     67  58  72 E3        30.07R
RICHLANDS      CLEAR     64  57  77 S3        30.05R
ROANOKE RAPIDS NOT AVBL
ROCKY MOUNT    MOCLDY    65  58  78 CALM      30.07R
WASHINGTON     PTCLDY    64  57  79 CALM      30.07R
WHITEVILLE     PTCLDY    68  65  90 CALM      30.03R

$$

AMZ130-135-150-152-154-156-158-170-250-252-270-ANZ085-086-088-633-658-670-190400-
MARINE OBSERVATIONS

STATION/POSITION TIME  TEMP    WIND        PRES    WAVE   SWELL
                       AIR SEA DIR/SP/G            HT/PER HT/PER
                 (UTC) (F)     (DEG/KT/KT) (MB)    (FT/S) (FT/S)
CHESAPEAKE LIGHT 0200   70      90/  8/ 10 1019.0
BUOY 44014       0300   72 74   50/ 10/ 14 1018.0    4/11   3/11
DUCK             0300   72 75   80/ 11/ 13 1017.3
2E DUCK          0300                        N/A     3/12   2/12
OREGON INLET     0300   71 74   50/  9/ 11 1017.8
BUOY 44095       0300      76                N/A     4/13   2/13
20E OREGON INLET NOT AVBL
HATTERAS CG      0300   71 77   60/  6/  9 1018.0
DIAMOND BUOY     0300   73      20/ 12/ 16 1017.2    4/11   3/11
CAPE LOOKOUT     0200   75      70/ 14/ 15 1016.8
BEAUFORT LAB     0300   71 78   40/  4/  7 1016.8
30 SE NEW RIVER  0200   77 83   70/ 17/ 19 1017.0
5 SE WRIGHTSVILL 0200   74 81   80/ 17/ 19   N/A
BUOY 41002       0203   79 82   60/ 10/ 14 1015.8    3/ 9   3/ 9
BUOY 41004       0300   80 83   80/ 12/ 14 1014.8    3/ 9   2/ 9

$$



USA.gov is the U.S. government's official web portal to all federal, state and local government web resources and services.